Location: Newark
(32.2028°N, 95.8492°W)
Time: 10:44:22
(UTC+00:00)

ISS - Visible Passes

Search period start: 21 October 2019 00:00
Search period end: 31 October 2019 00:00
Orbit: 411 x 421 km, 51.6° (Epoch: 21 October)

Date Brightness Start Highest point End Pass type
(mag) Time Alt. Az. Time Alt. Az. Time Alt. Az.
21 Oct -0.8 11:45:01 10° S 11:47:26 19° SE 11:49:52 10° E visible
23 Oct -3.5 11:43:28 10° SW 11:46:48 69° SE 11:50:09 10° NE visible
24 Oct -2.1 10:56:54 23° S 10:58:17 32° SE 11:01:21 10° ENE visible
25 Oct -0.5 10:11:21 13° E 10:11:21 13° E 10:12:05 10° E visible
25 Oct -2.9 11:44:18 17° W 11:46:21 33° NW 11:49:26 10° NNE visible
26 Oct -3.0 10:58:30 45° NNE 10:58:30 45° NNE 11:01:03 10° NE visible
27 Oct -1.7 11:45:24 13° NW 11:46:06 13° NNW 11:47:52 10° N visible
28 Oct -1.3 10:59:12 14° N 10:59:12 14° N 10:59:56 10° NNE visible
